• In Belarus
  • List of Countries
  • For 7 days
  • Water Temperature
  • Satellite Maps
  • Weather Map
  • Weather Widgets
  • user-avatar
    Login

    Hourly Weather Oruro

    Today, 18 October, Thursday

    Time Temperature Precipitation Wind Pressure Humidity
    00:00 +12°C° 0 mm 2 mps 477 mmHg 53%
    01:00 +10°C° 0 mm 2 mps 476 mmHg 54%
    02:00 +11°C° 0 mm 1 mps 476 mmHg 55%
    03:00 +9°C° 0 mm 2 mps 476 mmHg 54%
    04:00 +9°C° 0 mm 2 mps 475 mmHg 52%
    05:00 +8°C° 0 mm 2 mps 475 mmHg 51%
    06:00 +9°C° 0 mm 2 mps 476 mmHg 42%
    07:00 +10°C° 0 mm 2 mps 477 mmHg 33%
    08:00 +12°C° 0 mm 2 mps 478 mmHg 27%
    09:00 +13°C° 0 mm 2 mps 479 mmHg 24%
    10:00 +15°C° 0 mm 2 mps 479 mmHg 22%
    11:00 +16°C° 0 mm 2 mps 480 mmHg 19%
    12:00 +17°C° 0 mm 2 mps 480 mmHg 21%
    13:00 +17°C° 0 mm 3 mps 480 mmHg 22%
    14:00 +18°C° 0 mm 3 mps 480 mmHg 23%
    15:00 +18°C° 0.6 mm 3 mps 479 mmHg 27%
    16:00 +17°C° 0.6 mm 4 mps 479 mmHg 31%
    17:00 +16°C° 0.6 mm 5 mps 478 mmHg 34%
    18:00 +15°C° 0.6 mm 5 mps 478 mmHg 41%
    19:00 +13°C° 0.6 mm 5 mps 477 mmHg 48%
    20:00 +12°C° 0.6 mm 5 mps 477 mmHg 55%
    21:00 +10°C° 0.2 mm 5 mps 477 mmHg 57%
    22:00 +11°C° 0.2 mm 4 mps 477 mmHg 58%
    23:00 +10°C° 0.2 mm 4 mps 477 mmHg 59%

    Tomorrow, 19 October, Friday

    Time Temperature Precipitation Wind Pressure Humidity
    00:00 +10°C° 0 mm 3 mps 477 mmHg 61%
    01:00 +10°C° 0 mm 3 mps 476 mmHg 62%
    02:00 +9°C° 0 mm 2 mps 476 mmHg 64%
    03:00 +9°C° 0 mm 2 mps 475 mmHg 65%
    04:00 +8°C° 0 mm 2 mps 475 mmHg 67%
    05:00 +8°C° 0 mm 2 mps 475 mmHg 68%
    06:00 +10°C° 0 mm 1 mps 476 mmHg 64%
    07:00 +11°C° 0 mm 1 mps 476 mmHg 59%
    08:00 +12°C° 0 mm 1 mps 477 mmHg 55%
    09:00 +13°C° 0 mm 1 mps 478 mmHg 48%
    10:00 +15°C° 0 mm 1 mps 479 mmHg 41%
    11:00 +16°C° 0 mm 1 mps 480 mmHg 34%
    12:00 +17°C° 0 mm 2 mps 479 mmHg 32%
    13:00 +18°C° 0 mm 2 mps 479 mmHg 30%
    14:00 +18°C° 0 mm 3 mps 479 mmHg 28%
    15:00 +17°C° 0.4 mm 4 mps 478 mmHg 32%
    16:00 +16°C° 0.4 mm 5 mps 478 mmHg 36%
    17:00 +15°C° 0.4 mm 6 mps 477 mmHg 40%
    18:00 +12°C° 0.8 mm 7 mps 477 mmHg 47%
    19:00 +11°C° 0.8 mm 8 mps 477 mmHg 54%
    20:00 +10°C° 0.8 mm 8 mps 476 mmHg 61%
    21:00 +9°C° 0.1 mm 7 mps 477 mmHg 62%
    22:00 +9°C° 0.1 mm 6 mps 477 mmHg 62%
    23:00 +9°C° 0.1 mm 5 mps 477 mmHg 62%

    Day after tomorrow, 20 October, Saturday

    Time Temperature Precipitation Wind Pressure Humidity
    00:00 +10°C° 0 mm 4 mps 477 mmHg 64%
    01:00 +8°C° 0 mm 4 mps 476 mmHg 65%
    02:00 +8°C° 0 mm 4 mps 476 mmHg 67%
    03:00 +9°C° 0 mm 3 mps 476 mmHg 67%
    04:00 +9°C° 0 mm 2 mps 475 mmHg 67%
    05:00 +8°C° 0 mm 2 mps 475 mmHg 67%
    06:00 +9°C° 0 mm 2 mps 476 mmHg 65%
    07:00 +9°C° 0 mm 2 mps 476 mmHg 62%
    08:00 +10°C° 0 mm 2 mps 477 mmHg 60%
    09:00 +12°C° 0 mm 2 mps 478 mmHg 54%
    10:00 +13°C° 0 mm 2 mps 478 mmHg 48%
    11:00 +15°C° 0 mm 2 mps 479 mmHg 42%
    12:00 +16°C° 0 mm 2 mps 479 mmHg 38%
    13:00 +17°C° 0 mm 3 mps 479 mmHg 34%
    14:00 +17°C° 0 mm 3 mps 479 mmHg 31%
    15:00 +17°C° 0 mm 4 mps 478 mmHg 33%
    16:00 +16°C° 0 mm 5 mps 478 mmHg 34%
    17:00 +16°C° 0 mm 6 mps 478 mmHg 36%
    18:00 +14°C° 0 mm 6 mps 477 mmHg 42%
    19:00 +13°C° 0 mm 6 mps 477 mmHg 49%
    20:00 +10°C° 0 mm 6 mps 476 mmHg 55%
    21:00 +10°C° 0 mm 5 mps 476 mmHg 57%
    22:00 +11°C° 0 mm 4 mps 477 mmHg 58%
    23:00 +11°C° 0 mm 4 mps 477 mmHg 59%

    21 October, Sunday

    Time Temperature Precipitation Wind Pressure Humidity
    00:00 +10°C° 0 mm 3 mps 476 mmHg 60%
    01:00 +10°C° 0 mm 3 mps 476 mmHg 61%
    02:00 +10°C° 0 mm 2 mps 475 mmHg 63%
    03:00 +10°C° 0 mm 2 mps 475 mmHg 64%
    04:00 +9°C° 0 mm 2 mps 475 mmHg 65%
    05:00 +9°C° 0 mm 2 mps 475 mmHg 66%
    06:00 +10°C° 0 mm 2 mps 476 mmHg 62%
    07:00 +10°C° 0 mm 3 mps 476 mmHg 58%
    08:00 +11°C° 0 mm 3 mps 477 mmHg 55%
    09:00 +12°C° 0 mm 4 mps 478 mmHg 48%
    10:00 +13°C° 0 mm 4 mps 479 mmHg 41%
    11:00 +15°C° 0 mm 4 mps 479 mmHg 34%
    12:00 +17°C° 0 mm 4 mps 479 mmHg 32%
    13:00 +17°C° 0 mm 4 mps 479 mmHg 30%
    14:00 +18°C° 0 mm 4 mps 479 mmHg 28%
    15:00 +17°C° 0.1 mm 5 mps 478 mmHg 30%
    16:00 +17°C° 0.1 mm 5 mps 478 mmHg 32%
    17:00 +17°C° 0.1 mm 6 mps 477 mmHg 34%
    18:00 +15°C° 0 mm 6 mps 477 mmHg 40%
    19:00 +12°C° 0 mm 7 mps 477 mmHg 47%
    20:00 +11°C° 0 mm 7 mps 476 mmHg 54%
    21:00 +10°C° 0 mm 6 mps 476 mmHg 56%
    22:00 +10°C° 0 mm 5 mps 476 mmHg 59%
    23:00 +10°C° 0 mm 4 mps 476 mmHg 61%

    22 October, Monday

    Time Temperature Precipitation Wind Pressure Humidity
    00:00 +10°C° 0 mm 4 mps 476 mmHg 63%
    01:00 +10°C° 0 mm 3 mps 475 mmHg 64%
    02:00 +9°C° 0 mm 3 mps 475 mmHg 66%
    03:00 +9°C° 0 mm 2 mps 475 mmHg 67%
    04:00 +9°C° 0 mm 2 mps 475 mmHg 68%
    05:00 +10°C° 0 mm 1 mps 474 mmHg 69%
    06:00 +9°C° 0 mm 2 mps 475 mmHg 66%
    07:00 +10°C° 0 mm 2 mps 476 mmHg 63%
    08:00 +10°C° 0 mm 3 mps 476 mmHg 59%
    09:00 +11°C° 0 mm 3 mps 477 mmHg 53%
    10:00 +13°C° 0 mm 3 mps 478 mmHg 46%
    11:00 +14°C° 0 mm 4 mps 478 mmHg 40%
    12:00 +15°C° 0 mm 4 mps 478 mmHg 38%
    13:00 +15°C° 0 mm 5 mps 478 mmHg 37%
    14:00 +16°C° 0 mm 6 mps 478 mmHg 35%
    15:00 +15°C° 0 mm 6 mps 477 mmHg 38%
    16:00 +14°C° 0 mm 7 mps 476 mmHg 41%
    17:00 +14°C° 0 mm 7 mps 476 mmHg 44%
    18:00 +12°C° 0 mm 7 mps 476 mmHg 49%
    19:00 +10°C° 0 mm 7 mps 475 mmHg 54%
    20:00 +9°C° 0 mm 7 mps 475 mmHg 59%
    21:00 +9°C° 0 mm 6 mps 475 mmHg 62%
    22:00 +8°C° 0 mm 5 mps 475 mmHg 64%
    23:00 +8°C° 0 mm 4 mps 475 mmHg 66%

    23 October, Tuesday

    Time Temperature Precipitation Wind Pressure Humidity
    00:00 +8°C° 0 mm 3 mps 475 mmHg 66%
    01:00 +8°C° 0 mm 3 mps 474 mmHg 67%
    02:00 +8°C° 0 mm 2 mps 474 mmHg 68%
    03:00 +8°C° 0 mm 2 mps 474 mmHg 69%
    04:00 +8°C° 0 mm 2 mps 474 mmHg 69%
    05:00 +8°C° 0 mm 2 mps 473 mmHg 70%
    06:00 +8°C° 0 mm 2 mps 474 mmHg 67%
    07:00 +9°C° 0 mm 2 mps 475 mmHg 64%
    08:00 +9°C° 0 mm 2 mps 475 mmHg 61%
    09:00 +12°C° 0 mm 2 mps 476 mmHg 55%
    10:00 +13°C° 0 mm 3 mps 477 mmHg 48%
    11:00 +14°C° 0 mm 4 mps 478 mmHg 41%
    12:00 +14°C° 0.1 mm 4 mps 477 mmHg 40%
    13:00 +15°C° 0.1 mm 5 mps 477 mmHg 40%
    14:00 +15°C° 0.1 mm 6 mps 477 mmHg 39%
    15:00 +15°C° 0.2 mm 5 mps 477 mmHg 41%
    16:00 +14°C° 0.2 mm 5 mps 476 mmHg 44%
    17:00 +14°C° 0.2 mm 5 mps 476 mmHg 46%
    18:00 +13°C° 0.4 mm 5 mps 476 mmHg 52%
    19:00 +12°C° 0.4 mm 4 mps 476 mmHg 58%
    20:00 +10°C° 0.4 mm 4 mps 475 mmHg 64%
    21:00 +10°C° 1.1 mm 4 mps 475 mmHg 68%
    22:00 +9°C° 1.1 mm 3 mps 475 mmHg 73%
    23:00 +8°C° 1.1 mm 2 mps 475 mmHg 77%
    Show more